CAPE
3 2 2 2 2 1 1 0 0 0 0 0 0 0 0 0 0 0 0 0 806 1651 1181 961 88 31 272 87 93 956 461 48 204 267 349 254 300 128 121 117 134 78 34 5 137
4 3 3 2 1 1 1 1 1 0 0 0 0 0 0 0 0 0 0 1392 1555 1455 821 801 879 420 478 232 178 430 90 134 107 173 105 207 208 174 122 107 50 33 307 236 326
3 3 3 3 2 2 1 1 1 0 0 0 0 0 0 0 0 0 858 2089 1613 1517 617 854 382 205 156 204 230 431 6 96 172 167 295 383 317 178 91 87 56 237 480 398 426
5 1 1 3 3 2 1 1 1 0 0 0 0 0 0 0 0 0 2476 2301 1985 1281 568 664 400 1015 1384 867 520 234 67 239 436 399 400 405 355 110 93 77 71 404 535 489 386
0 0 0 3 3 2 1 1 0 0 0 0 0 0 0 0 0 956 2562 2566 1682 785 468 609 852 1063 1019 1094 305 159 278 207 200 469 397 172 258 177 175 58 21 299 529 448 266
1 1 0 2 3 1 1 0 0 0 0 0 0 0 0 0 0 771 992 993 731 342 149 130 238 528 414 117 54 173 199 164 167 145 642 498 320 296 152 34 36 21 319 298 207
0 0 0 3 2 1 0 0 0 0 0 0 0 0 0 0 0 0 298 359 201 49 66 58 169 49 0 34 126 198 99 143 143 153 178 422 455 308 150 36 30 28 4 264 241
1 1 1 3 2 1 0 0 0 0 0 0 0 0 0 0 0 0 0 0 12 18 26 23 66 0 0 49 137 157 132 120 96 162 220 285 472 305 106 59 29 43 51 46 12
0 1 2 2 2 1 1 0 0 0 0 0 0 0 0 0 0 0 0 0 0 0 0 0 0 0 0 27 35 107 171 178 89 156 345 327 505 354 131 61 51 78 79 85 64
0 0 1 1 3 1 1 0 0 0 0 0 0 0 0 0 0 0 0 0 0 0 0 0 0 0 0 0 1 26 82 201 16 115 217 249 455 331 211 119 97 103 82 82 95
0 0 0 0 1 1 0 0 0 0 0 0 0 0 0 0 0 0 0 0 0 0 0 0 0 0 0 0 0 0 20 179 149 46 130 152 393 321 250 204 173 112 114 98 63
0 0 0 0 0 0 0 0 0 0 0 0 0 0 0 0 0 0 0 0 0 0 0 0 0 0 0 0 0 0 0 30 152 78 79 105 212 389 275 235 193 130 103 76 61
0 0 1 1 0 0 0 0 0 0 0 0 0 0 0 0 0 0 0 0 0 0 0 0 0 0 0 0 0 0 0 0 0 65 30 100 225 561 388 258 198 130 74 59 90
1 1 0 1 0 0 0 0 0 0 0 0 0 0 0 0 0 0 0 0 0 0 0 0 0 0 0 0 0 0 0 0 0 1 23 53 236 1 532 454 409 224 114 62 323
2 2 0 0 0 0 0 0 0 0 0 0 0 0 0 0 0 0 0 0 0 0 0 0 0 0 0 0 0 0 0 0 0 0 0 0 0 0 191 453 506 500 171 107 451
2 0 0 0 0 0 0 0 0 0 0 0 0 0 0 0 0 0 0 0 0 0 0 0 0 0 0 0 0 0 0 0 0 0 0 0 0 0 125 462 427 562 464 191 398
0 0 1 0 0 0 0 0 0 0 0 0 0 0 0 0 0 0 0 0 0 0 0 0 0 0 0 0 0 0 0 0 0 0 0 0 0 0 0 141 414 475 628 403 432
0 0 0 0 0 0 0 0 0 0 0 0 0 0 0 0 0 0 0 0 0 0 0 0 0 0 0 0 0 0 0 0 0 0 0 0 0 0 0 14 259 337 493 611 415
0 0 0 0 0 0 0 0 0 0 0 0 0 0 0 0 0 0 0 0 0 0 0 0 0 0 0 0 0 0 0 0 0 0 0 0 38 391 31 0 0 17 377 577 435
0 0 0 0 0 0 0 0 0 0 0 0 0 0 0 0 0 0 0 0 0 0 0 0 0 0 0 0 0 0 0 0 0 0 0 0 0 729 321 27 0 0 239 455 429
0 0 0 0 0 0 0 0 0 0 0 0 0 0 0 0 0 0 0 0 0 0 0 0 0 0 0 0 0 0 0 0 0 0 0 0 0 0 492 204 244 471 927 1170 1381
0 0 0 0 0 0 0 0 0 0 0 0 0 0 0 0 0 0 0 0 0 0 0 0 0 0 0 0 0 0 0 0 0 0 0 0 0 0 532 944 1320 1463 1508 1493 1187
0 0 0 0 0 0 0 0 0 0 0 0 0 0 0 0 0 0 0 0 0 0 0 0 0 0 0 0 0 0 0 0 0 0 0 0 0 0 452 555 975 1513 1572 1478 1033
0 0 0 0 0 0 0 0 0 0 0 0 0 0 0 0 0 0 0 0 0 0 0 0 0 0 0 0 0 0 0 0 0 0 0 0 1 247 469 762 961 1034 1581 1496 953
0 0 0 0 0 0 0 0 0 0 0 0 0 0 0 0 0 0 0 0 0 0 0 0 0 0 0 0 0 0 0 0 0 0 0 0 286 353 328 894 996 854 1126 1417 1114
0 0 0 0 0 0 0 0 0 0 0 0 0 0 0 0 0 0 0 0 0 0 0 0 0 0 0 0 0 0 0 0 0 0 0 0 196 14 13 410 616 671 1592 1601 1463
0 0 0 0 0 1 0 0 0 0 0 0 0 0 0 0 0 0 0 0 0 0 0 0 0 0 0 0 0 0 0 0 0 0 0 12 79 0 0 116 328 485 1239 1976 2200
CIN
-0 -0 -0 -0 -0 -0 -0 -0 -0 -0 -0 -0 -0 -0 -0 -0 -0 -0 -0 -45 -534 -416 -426 -382 -528 -571 -433 -484 -531 -254 -148 -102 -85 -122 -110 -134 -128 -154 -159 -169 -191 -188 -208 -253 -255
-0 -0 -0 -0 -0 -0 -0 -0 -0 -0 -0 -0 -0 -0 -0 -0 -0 -0 -0 -519 -488 -440 -385 -340 -293 -404 -359 -455 -469 -309 -197 -141 -103 -90 -86 -116 -123 -174 -199 -209 -236 -277 -215 -265 -225
-0 -0 -0 -0 -0 -0 -0 -0 -0 -0 -0 -0 -0 -0 -0 -0 -0 -0 -595 -478 -479 -419 -404 -282 -420 -416 -419 -452 -397 -306 -254 -168 -86 -105 -111 -101 -105 -166 -238 -260 -270 -287 -275 -233 -197
-0 -0 -0 -0 -0 -0 -0 -0 -0 -0 -0 -0 -0 -0 -0 -0 -0 -0 -505 -447 -416 -410 -364 -349 -421 -231 -191 -222 -248 -202 -255 -161 -98 -98 -114 -138 -139 -206 -251 -265 -307 -242 -231 -216 -203
-0 -0 -0 -0 -0 -0 -0 -0 -0 -0 -0 -0 -0 -0 -0 -0 -0 -505 -500 -441 -458 -495 -355 -335 -301 -235 -163 -132 -115 -181 -225 -181 -210 -148 -118 -185 -180 -190 -176 -267 -360 -248 -182 -191 -205
-0 -0 -0 -0 -0 -0 -0 -0 -0 -0 -0 -0 -0 -0 -0 -0 -0 -718 -660 -631 -578 -546 -494 -456 -333 -261 -170 -127 -139 -145 -221 -236 -295 -288 -138 -185 -203 -161 -233 -279 -348 -386 -229 -196 -210
-0 -0 -0 -0 -0 -0 -0 -0 -0 -0 -0 -0 -0 -0 -0 -0 -0 -0 -730 -748 -663 -570 -456 -523 -417 -264 -0 -142 -198 -232 -229 -230 -276 -310 -238 -174 -185 -186 -283 -318 -304 -358 -450 -219 -203
-0 -0 -0 -0 -0 -0 -0 -0 -0 -0 -0 -0 -0 -0 -0 -0 -0 -0 -0 -0 -231 -616 -402 -374 -452 -0 -0 -260 -177 -147 -211 -133 -224 -300 -268 -241 -141 -293 -327 -306 -303 -314 -323 -366 -380
-0 -0 -0 -0 -0 -0 -0 -0 -0 -0 -0 -0 -0 -0 -0 -0 -0 -0 -0 -0 -0 -0 -0 -0 -0 -0 -9 -164 -155 -176 -87 -145 -217 -318 -309 -278 -179 -290 -358 -346 -319 -316 -305 -320 -323
-0 -0 -0 -0 -0 -0 -0 -0 -0 -0 -0 -0 -0 -0 -0 -0 -0 -0 -0 -0 -0 -0 -0 -0 -0 -0 -0 -0 -27 -130 -136 -165 -186 -259 -347 -285 -211 -334 -364 -360 -326 -354 -368 -364 -346
-0 -0 -0 -0 -0 -0 -0 -0 -0 -0 -0 -0 -0 -0 -0 -0 -0 -0 -0 -0 -0 -0 -0 -0 -0 -0 -0 -0 -0 -0 -175 -133 -187 -319 -265 -333 -215 -321 -347 -365 -379 -375 -406 -413 -442
-0 -0 -0 -0 -0 -0 -0 -0 -0 -0 -0 -0 -0 -0 -0 -0 -0 -0 -0 -0 -0 -0 -0 -0 -0 -0 -0 -0 -0 -0 -22 -139 -181 -288 -234 -300 -259 -262 -331 -344 -362 -359 -400 -445 -479
-0 -0 -0 -0 -0 -0 -0 -0 -0 -0 -0 -0 -0 -0 -0 -0 -0 -0 -0 -0 -0 -0 -0 -0 -0 -0 -0 -0 -0 -0 -0 -0 -0 -283 -141 -296 -218 -235 -287 -337 -348 -331 -362 -436 -439
-0 -0 -0 -0 -0 -0 -0 -0 -0 -0 -0 -0 -0 -0 -0 -0 -0 -0 -0 -0 -0 -0 -0 -0 -0 -0 -0 -0 -0 -0 -0 -0 -0 -44 -160 -288 -138 -85 -233 -264 -273 -313 -374 -374 -456
-0 -0 -0 -0 -0 -0 -0 -0 -0 -0 -0 -0 -0 -0 -0 -0 -0 -0 -0 -0 -0 -0 -0 -0 -0 -0 -0 -0 -0 -0 -0 -0 -0 -0 -0 -0 -0 -0 -325 -202 -250 -272 -330 -391 -465
-0 -0 -0 -0 -0 -0 -0 -0 -0 -0 -0 -0 -0 -0 -0 -0 -0 -0 -0 -0 -0 -0 -0 -0 -0 -0 -0 -0 -0 -0 -0 -0 -0 -0 -0 -0 -0 -0 -277 -179 -212 -248 -274 -378 -459
-0 -0 -0 -0 -0 -0 -0 -0 -0 -0 -0 -0 -0 -0 -0 -0 -0 -0 -0 -0 -0 -0 -0 -0 -0 -0 -0 -0 -0 -0 -0 -0 -0 -0 -0 -0 -0 -0 -0 -286 -242 -252 -255 -319 -374
-0 -0 -0 -0 -0 -0 -0 -0 -0 -0 -0 -0 -0 -0 -0 -0 -0 -0 -0 -0 -0 -0 -0 -0 -0 -0 -0 -0 -0 -0 -0 -0 -0 -0 -0 -0 -0 -0 -0 -193 -265 -308 -391 -386 -437
-0 -0 -0 -0 -0 -0 -0 -0 -0 -0 -0 -0 -0 -0 -0 -0 -0 -0 -0 -0 -0 -0 -0 -0 -0 -0 -0 -0 -0 -0 -0 -0 -0 -0 -0 -0 -20 -186 -374 -0 -0 -367 -410 -319 -403
-0 -0 -0 -0 -0 -0 -0 -0 -0 -0 -0 -0 -0 -0 -0 -0 -0 -0 -0 -0 -0 -0 -0 -0 -0 -0 -0 -0 -0 -0 -0 -0 -0 -0 -0 -0 -0 -110 -299 -319 -0 -10 -341 -313 -396
-0 -0 -0 -0 -0 -0 -0 -0 -0 -0 -0 -0 -0 -0 -0 -0 -0 -0 -0 -0 -0 -0 -0 -0 -0 -0 -0 -0 -0 -0 -0 -0 -0 -0 -0 -0 -43 -0 -276 -385 -441 -453 -414 -318 -246
-0 -0 -0 -0 -0 -0 -0 -0 -0 -0 -0 -0 -0 -0 -0 -0 -0 -0 -0 -0 -0 -0 -0 -0 -0 -0 -0 -0 -0 -0 -0 -0 -0 -0 -0 -0 -0 -0 -284 -303 -289 -325 -288 -289 -405
-0 -0 -0 -0 -0 -0 -0 -0 -0 -0 -0 -0 -0 -0 -0 -0 -0 -0 -0 -0 -0 -0 -0 -0 -0 -0 -0 -0 -0 -0 -0 -0 -0 -0 -0 -0 -0 -0 -370 -339 -338 -268 -294 -303 -496
-0 -0 -0 -0 -0 -0 -0 -0 -0 -0 -0 -0 -0 -0 -0 -0 -0 -0 -0 -0 -0 -0 -0 -0 -0 -0 -0 -0 -0 -0 -0 -0 -0 -0 -0 -0 -119 -321 -336 -287 -278 -365 -320 -350 -485
-0 -0 -0 -0 -0 -0 -0 -0 -0 -0 -0 -0 -0 -0 -0 -0 -0 -0 -0 -0 -0 -0 -0 -0 -0 -0 -0 -0 -0 -0 -0 -0 -0 -0 -0 -0 -202 -255 -366 -279 -265 -386 -426 -390 -413
-0 -0 -0 -0 -0 -0 -0 -0 -0 -0 -0 -0 -0 -0 -0 -0 -0 -0 -0 -0 -0 -0 -0 -0 -0 -0 -0 -0 -0 -0 -0 -0 -0 -0 -0 -0 -243 -478 -545 -462 -401 -420 -342 -355 -373
-0 -0 -0 -0 -0 -14 -0 -0 -0 -0 -0 -0 -0 -0 -0 -0 -0 -0 -0 -0 -0 -0 -0 -0 -0 -0 -0 -0 -0 -0 -0 -0 -0 -0 -0 -108 -167 -0 -0 -486 -409 -482 -373 -303 -275
Wind_Speed
14 13 14 15 15 15 15 15 16 16 15 15 13 11 14 12 8 5 6 7 9 15 15 9 3 4 3 3 3 1 4 2 5 7 7 11 6 10 3 13 5 8 7 10 16
14 15 14 15 16 16 16 16 17 16 16 16 13 13 11 12 1 6 4 18 27 23 11 13 9 6 3 1 2 1 3 6 4 1 5 12 13 12 7 12 3 8 12 17 17
15 15 16 15 16 16 16 16 17 17 16 18 16 13 14 7 2 3 9 18 25 13 8 6 9 6 2 1 3 5 4 2 3 7 6 14 12 5 15 4 13 19 21 20 16
17 17 17 17 16 16 16 16 16 18 17 17 17 16 18 2 1 3 10 20 22 11 14 10 7 5 5 6 6 3 4 2 3 6 6 12 9 8 10 5 12 17 21 21 17
17 17 17 17 17 17 16 16 16 16 17 17 16 15 4 4 7 7 10 15 13 6 8 8 7 7 4 5 6 3 5 1 6 2 6 10 9 9 8 10 9 17 18 19 16
17 18 18 19 18 18 17 16 17 16 16 16 15 14 2 2 2 16 12 9 8 9 6 7 8 10 5 5 6 1 5 6 6 6 6 10 4 5 4 9 9 14 17 16 16
17 18 19 19 19 19 19 18 18 16 15 13 12 4 1 12 5 11 15 9 7 10 7 8 7 3 3 5 3 3 5 4 3 4 2 7 4 5 11 12 11 9 11 15 14
18 18 20 19 19 20 21 20 19 16 12 9 5 1 8 3 4 8 7 6 11 11 9 9 13 8 4 5 5 3 5 3 2 3 2 3 4 5 11 13 9 9 8 11 14
18 18 20 20 19 20 20 24 18 10 5 2 1 0 10 9 4 8 8 7 3 10 9 8 8 4 4 5 4 1 3 3 3 8 4 2 3 8 11 12 12 11 10 9 8
19 20 20 20 19 19 25 15 8 3 2 4 3 2 5 5 4 4 5 4 4 4 7 7 5 4 5 5 5 6 4 4 5 8 4 3 4 14 16 14 15 13 11 9 8
21 21 21 21 20 17 13 4 5 5 1 8 5 4 5 7 2 5 2 2 3 6 3 4 6 7 12 10 6 7 6 8 4 7 6 7 5 16 17 14 13 13 12 11 11
21 22 22 22 21 18 0 3 4 4 9 10 8 9 5 3 5 6 4 4 2 3 4 8 6 13 6 6 8 2 8 4 2 8 6 5 11 13 18 22 18 16 14 14 10
17 18 23 24 23 2 1 5 2 5 3 9 7 7 6 8 8 9 9 4 3 3 2 5 11 11 6 8 5 2 8 6 4 5 4 4 5 7 12 10 12 14 13 12 10
18 18 23 30 2 4 4 3 6 4 5 9 5 10 6 7 5 6 8 7 1 9 4 6 6 5 7 5 4 2 4 4 9 6 5 8 6 6 11 16 13 16 15 9 10
19 16 19 8 4 3 5 8 8 4 3 3 5 0 5 10 3 4 5 5 7 6 5 10 7 8 5 5 4 7 3 2 6 7 5 3 3 7 10 9 16 16 15 10 13
22 19 17 2 1 8 10 10 3 8 8 2 6 7 6 3 3 3 4 4 2 5 2 8 5 4 8 1 1 4 5 7 5 4 2 5 7 4 8 23 13 7 11 14 16
25 18 8 2 5 4 6 5 7 4 6 2 5 3 3 5 3 4 2 0 6 3 4 7 6 5 4 2 4 8 8 5 6 6 7 6 3 8 5 6 11 13 12 14 14
28 21 6 6 3 3 4 7 4 5 6 6 1 4 7 6 4 4 5 4 3 6 3 2 10 2 3 7 7 3 8 7 4 3 4 4 1 5 6 8 9 5 5 8 10
22 2 3 6 9 2 6 3 10 7 4 6 3 5 3 4 5 5 8 8 10 9 9 5 8 6 4 4 9 3 3 5 8 3 3 3 4 5 7 7 5 6 6 9 10
4 5 5 3 11 5 6 7 6 5 6 4 1 2 7 2 6 7 8 7 7 12 6 6 3 4 6 5 3 5 7 3 4 3 1 3 3 7 1 3 2 3 7 7 8
3 5 4 4 1 6 6 8 6 7 5 3 2 4 6 7 9 6 8 7 6 4 6 7 5 9 3 3 9 2 1 6 6 5 7 5 8 8 15 14 14 11 8 8 8
4 4 4 4 5 1 5 8 3 3 5 5 3 8 4 2 6 8 10 10 11 13 11 8 6 5 13 5 3 4 7 6 7 4 1 4 6 2 11 14 14 11 9 4 2
3 5 5 4 3 2 4 3 5 5 5 5 5 6 2 3 3 7 8 9 8 11 13 9 3 2 13 8 4 3 4 5 6 4 5 7 6 2 6 6 8 11 8 6 4
2 5 5 2 2 3 0 5 4 5 7 7 7 3 2 4 5 4 2 5 3 13 10 11 6 10 10 10 5 3 2 5 4 5 6 6 5 4 7 9 7 6 7 7 6
2 4 1 5 4 4 3 3 4 7 5 3 3 9 8 6 3 5 4 5 4 4 6 10 9 7 7 5 5 5 6 6 8 7 8 9 13 15 14 14 13 9 9 8 7
2 3 5 5 6 3 3 1 5 9 9 11 9 13 4 8 10 9 4 3 4 1 5 3 6 6 6 5 5 5 7 6 8 4 3 14 9 6 6 6 7 10 12 14 12
3 2 2 5 6 2 1 3 8 7 9 16 15 4 9 12 11 12 9 4 5 3 3 3 7 5 6 2 2 5 7 5 7 6 12 9 12 10 5 8 10 11 13 15 14
Wind_Direction
353 351 348 344 344 340 339 334 330 330 329 327 329 323 314 315 314 141 223 205 154 137 146 141 106 83 4 55 245 216 71 297 199 171 161 154 141 160 92 137 161 204 143 146 142
352 349 347 343 340 338 336 333 329 329 328 325 327 322 317 319 262 217 257 139 141 147 146 153 164 125 302 307 336 29 113 219 195 96 147 162 161 143 135 157 151 95 105 136 151
349 347 343 343 338 336 334 332 328 326 327 323 324 325 315 315 295 241 141 148 159 163 156 135 116 113 274 107 222 193 219 209 59 100 61 137 151 112 147 206 166 152 149 159 162
349 347 346 342 339 335 332 329 326 323 322 321 323 325 319 253 116 213 160 146 160 165 152 144 160 176 235 218 183 224 284 330 117 130 125 148 153 141 172 193 154 152 156 163 168
348 346 343 340 337 333 329 325 320 318 316 317 322 328 352 7 257 143 139 133 147 163 177 182 176 191 226 236 142 268 150 285 23 346 135 131 146 152 187 153 134 150 163 172 177
348 345 343 338 336 331 327 320 314 311 310 312 320 319 355 313 139 144 140 141 156 174 194 189 203 207 213 221 158 267 143 148 46 3 101 114 113 104 135 149 159 149 176 180 184
348 344 342 337 334 329 322 315 308 305 303 304 310 315 40 233 110 159 153 182 181 181 176 214 209 203 257 124 166 143 90 33 40 30 72 102 29 164 152 164 175 177 164 189 196
347 343 341 336 331 326 317 310 305 299 292 286 287 273 248 234 133 168 192 251 181 198 222 217 204 225 235 108 69 110 86 147 228 104 350 48 224 154 161 167 189 202 203 185 198
346 342 338 335 328 323 314 308 301 292 245 229 274 151 270 312 199 225 162 228 181 200 218 240 156 192 34 88 51 12 207 218 163 192 128 89 170 174 175 177 187 209 215 219 225
343 338 335 331 326 323 319 295 291 302 172 195 257 357 279 258 289 276 186 220 259 340 357 34 70 94 27 71 220 209 206 219 197 193 151 202 224 169 184 186 194 205 217 223 229
343 339 336 330 326 331 343 19 25 3 46 197 207 250 295 297 312 249 234 149 9 57 355 359 37 286 272 197 198 207 196 181 199 187 124 213 213 185 187 200 203 207 217 225 228
342 339 335 329 324 322 280 61 125 156 302 242 236 275 273 75 310 280 104 146 112 258 25 5 290 273 277 324 234 271 162 199 124 152 103 206 231 196 189 203 205 204 213 224 227
327 328 336 326 320 90 5 234 356 335 176 288 196 205 209 145 213 251 142 172 162 256 152 166 253 310 293 302 206 12 164 195 138 105 36 88 331 198 222 210 216 221 219 216 217
327 327 337 326 352 322 274 271 297 209 53 270 219 262 166 170 260 223 193 143 148 221 218 232 278 268 314 246 128 67 193 140 135 101 192 151 245 246 213 214 213 217 212 193 126
324 327 336 337 291 304 292 319 306 63 333 217 201 182 154 153 185 246 188 72 200 214 97 250 303 338 329 247 143 212 171 98 139 138 108 203 70 263 162 226 221 215 206 176 166
323 325 331 124 250 248 307 313 70 44 256 273 165 174 123 159 228 360 143 83 174 166 172 248 284 235 226 169 212 91 65 49 57 122 77 226 156 271 174 215 221 212 191 181 182
321 316 301 276 239 317 309 30 51 156 321 243 215 161 155 165 198 152 119 124 173 118 319 317 248 266 220 304 17 71 55 350 3 12 224 318 97 234 278 203 201 197 186 181 186
322 315 213 210 271 337 40 52 177 238 249 302 124 91 172 161 208 140 151 230 251 103 108 145 320 207 172 190 178 105 136 151 225 215 264 330 218 338 300 154 173 164 122 137 187
318 320 250 248 185 75 76 119 207 212 269 336 338 106 236 218 165 142 187 198 203 168 167 155 274 300 203 182 134 194 171 190 104 4 72 281 307 65 32 55 91 113 145 195 214
331 331 269 143 153 88 85 228 237 227 331 352 300 156 190 201 164 161 177 207 219 185 155 202 295 257 292 126 40 140 164 69 15 144 147 319 270 177 188 157 114 175 206 234 263
17 353 274 142 95 63 191 221 264 263 348 352 306 305 220 194 179 189 208 262 213 160 135 135 121 273 10 180 180 51 351 54 117 127 152 151 260 197 171 184 179 204 209 207 229
359 338 323 83 69 40 161 188 245 284 38 300 252 221 237 217 204 199 205 221 182 153 160 201 154 234 243 244 179 186 176 138 121 224 158 145 268 282 169 176 167 177 191 180 321
341 266 312 80 164 255 262 256 233 266 259 251 261 207 266 296 278 191 198 239 205 157 170 175 225 307 323 355 349 200 182 119 116 98 187 131 249 48 133 176 170 151 165 166 167
19 338 313 36 128 140 195 242 241 238 238 210 245 231 317 260 231 270 260 277 192 193 168 121 136 166 205 208 175 178 140 141 120 116 172 207 164 175 174 177 166 155 161 177 165
75 270 190 311 321 341 175 281 240 273 257 242 278 208 202 233 225 224 255 289 320 95 131 136 182 173 225 183 182 189 213 188 188 196 156 200 176 190 188 180 185 164 160 162 168
9 5 344 282 285 244 173 236 275 273 183 267 225 247 196 219 204 208 185 225 247 239 125 316 194 154 214 169 177 246 286 208 198 173 37 156 190 203 180 123 168 164 165 171 177
314 348 110 277 303 310 207 354 286 337 249 222 229 284 294 230 214 216 200 238 220 195 149 118 135 113 229 184 90 328 237 225 199 183 148 157 212 153 161 182 179 173 178 169 175